Regional Weather Roundup
Issued by NWS

Home | Current Version | Previous Version | Text Only | Print | Product List | Glossary Off
Versions: 1 2 3 4 5 6 7 8 9 10 11 12 13 14 15 16 17 18 19 20 21 22 23 24 25 26 27 28 29 30 31 32 33 34 35 36 37 38 39 40 41 42 43 44 45 46 47 48 49 50

000
ASUS43 KOAX 250610
RWRNE

WEATHER ROUNDUP FOR NEBRASKA
NATIONAL WEATHER SERVICE OMAHA NE
100 AM CDT MON SEP 25 2017

NOTES: SATELLITE DATA IS BEING USED TO AUGMENT CLOUD COVER ABOVE
       12000 FEET.
       "FAIR" INDICATES FEW OR NO CLOUDS BELOW 12,000 FEET WITH NO
       SIGNIFICANT WEATHER AND/OR OBSTRUCTIONS TO VISIBILITY.


NEZ001>004-019>022-054>056-250700-
NEBRASKA PANHANDLE

CITY           SKY/WX    TMP DP  RH WIND       PRES   REMARKS
SCOTTSBLUFF    CLOUDY    47  43  86 E6        30.08R
6HR MIN TEMP:  47; 6HR MAX TEMP:  50; 6HR PCP:  0.01;

ALLIANCE       CLOUDY    45  43  93 NE9       30.06S
6HR MIN TEMP:  45; 6HR MAX TEMP:  49; 6HR PCP:  0.07;

CHADRON        CLOUDY    47  42  83 NE9       30.09S
6HR MIN TEMP:  47; 6HR MAX TEMP:  50; 6HR PCP: TRACE;

GORDON         CLOUDY    46  43  91 NE6       30.07F
6HR MIN TEMP:  46; 6HR MAX TEMP:  48; 6HR PCP:  0.01;

KIMBALL        DRIZZLE   45  45 100 NE7       30.09R
SIDNEY         CLOUDY    46  45  96 NE10      30.07R FOG
6HR MIN TEMP:  46; 6HR MAX TEMP:  51; 6HR PCP:  0.01;

$$

NEZ057>060-069>072-079>082-250700-
SOUTHWEST NEBRASKA

CITY           SKY/WX    TMP DP  RH WIND       PRES   REMARKS
NORTH PLATTE   CLOUDY    51  49  92 NE15G23   30.01S
6HR MIN TEMP:  51; 6HR MAX TEMP:  54; 6HR PCP:  0.06;

IMPERIAL       LGT RAIN  51  49  92 N10       30.06R
6HR MIN TEMP:  51; 6HR MAX TEMP:  53; 6HR PCP:  0.18;

LEXINGTON      RAIN      54  51  91 NE10      30.00R
MCCOOK         LGT RAIN  54  53  97 NE16      29.95F
6HR MIN TEMP:  53; 6HR MAX TEMP:  56; 6HR PCP:  0.50;

OGALLALA       TSTM      51  48  89 N15G25    30.03R
$$

NEZ005>010-023>029-035>040-094-250700-
NORTH CENTRAL NEBRASKA

CITY           SKY/WX    TMP DP  RH WIND       PRES   REMARKS
VALENTINE      CLOUDY    50  48  93 N10       30.08R FOG
6HR MIN TEMP:  50; 6HR MAX TEMP:  54; 6HR PCP: TRACE;

AINSWORTH      CLOUDY    49  49  98 N9        30.06S
BROKEN BOW     CLOUDY    52  51  97 N12       30.00F
6HR MIN TEMP:  52; 6HR MAX TEMP:  56; 6HR PCP:  0.31;

O`NEILL        RAIN      51  51 100 N10       30.04S
ORD            LGT RAIN  53  50  89 NE5       30.02F
6HR MIN TEMP:  52; 6HR MAX TEMP:  57; 6HR PCP:  0.56;

THEDFORD       LGT RAIN  49  48  95 N10       30.05S
$$

NEZ041-046>049-061>064-073>077-083>087-250700-
SOUTH CENTRAL NEBRASKA

CITY           SKY/WX    TMP DP  RH WIND       PRES   REMARKS
GRAND ISLAND   CLOUDY    55  55 100 NE10      29.99F
6HR MIN TEMP:  55; 6HR MAX TEMP:  57; 6HR PCP:  0.18;

AURORA         CLOUDY    55  55  98 N16       29.99R
HASTINGS       LGT RAIN  56  55  97 NE14      29.97F
6HR MIN TEMP:  56; 6HR MAX TEMP:  59; 6HR PCP:  0.12;

HEBRON         CLOUDY    65  63  94 NE3       29.91S
HOLDREGE       RAIN      54  52  95 NE14      29.97R
KEARNEY        LGT RAIN  54  54 100 NE16      29.99F
YORK           CLOUDY    57  57 100 N15G21    29.97S
$$

NEZ011>018-030>034-042>045-250700-
NORTHEAST NEBRASKA

CITY           SKY/WX    TMP DP  RH WIND       PRES   REMARKS
NORFOLK        LGT RAIN  54  53  97 N12       30.00R
6HR MIN TEMP:  54; 6HR MAX TEMP:  58; 6HR PCP:  0.14;

ALBION         LGT RAIN  55  53  95 NW8       30.02R
BLAIR          TSTM      63  61  96 NW3       29.96R
COLUMBUS       CLOUDY    57  55  94 NW8       29.99S
FREMONT        RAIN      60  59  97 N5        29.96F
TEKAMAH        LGT RAIN  60  59  96 N7        29.94F
6HR MIN TEMP:  60; 6HR MAX TEMP:  71; 6HR PCP:  0.48;

WAYNE          HVY RAIN  55  52  91 NW8       30.02R
$$

NEZ050>053-065>068-078-088>093-250700-
SOUTHEAST NEBRASKA

CITY           SKY/WX    TMP DP  RH WIND       PRES   REMARKS
LINCOLN        LGT RAIN  63  62  97 NE9       29.94S
6HR MIN TEMP:  63; 6HR MAX TEMP:  77; 6HR PCP:  0.59;

OMAHA EPPLEY   CLOUDY    64  59  83 NW8       29.94F
6HR MIN TEMP:  64; 6HR MAX TEMP:  77; 6HR PCP: TRACE;

BEATRICE       CLOUDY    68  67  95 E7        29.91S
FALLS CITY     PTCLDY    72  65  78 S6        29.90R
6HR MIN TEMP:  71; 6HR MAX TEMP:  84;

NEBRASKA CITY  CLOUDY    67  66  95 NW14G23   29.96R
PLATTSMOUTH    CLOUDY    65  62  90 W16G26    30.00R
$$

NEZ044-045-051>053-067-250700-
OMAHA AREA

CITY           SKY/WX    TMP DP  RH WIND       PRES   REMARKS
OMAHA EPPLEY   CLOUDY    64  59  83 NW8       29.94F
6HR MIN TEMP:  64; 6HR MAX TEMP:  77; 6HR PCP: TRACE;

BLAIR          TSTM      63  61  96 NW3       29.96R
FREMONT        RAIN      60  59  97 N5        29.96F
MILLARD        TSTM      65  63  93 W7        29.97R
OFFUTT AFB     CLOUDY    65  60  82 W10       29.95R
PLATTSMOUTH    CLOUDY    65  62  90 W16G26    30.00R
WAHOO          RAIN      61  60  97 N6        29.95F
$$



USA.gov is the U.S. government's official web portal to all federal, state and local government web resources and services.